This demonstration page uses our WeatherBlox Daily Observations layout. Learn more.

Left ArrowRight Arrow

30.21309, -93.2044

Hourly Observations for May 23, 2015

Temp ( °F °C ) Dew Point ( °F °C ) Humidity (%) Winds ( mph kmh ) Pressure ( in mb ) Visibility ( mi km ) Precip ( " mm )
12:15 am 00:15 Clear 69 20.8 67 19.5 92 92 ENE 5 7 30.15 1021 10 16 0.00 0.00
12:35 am 00:35 Clear 69 20.7 67 19.5 93 93 ENE 6 9 30.15 1021 10 16 0.00 0.00
12:55 am 00:55 Clear 69 20.8 67 19.6 93 93 ENE 6 9 30.15 1021 10 16 0.00 0.00
1:15 am 01:15 Clear 69 20.6 67 19.5 93 93 ENE 6 9 30.15 1021 10 16 0.00 0.00
1:35 am 01:35 Clear 69 20.6 67 19.5 93 93 ENE 6 9 30.15 1021 10 16 0.00 0.00
1:55 am 01:55 Clear 69 20.5 67 19.5 94 94 ENE 7 11 30.12 1020 10 16 0.00 0.00
2:15 am 02:15 Clear 69 20.5 67 19.5 94 94 ENE 6 9 30.12 1020 10 16 0.00 0.00
2:35 am 02:35 Clear 69 20.5 67 19.5 94 94 E 5 7 30.12 1020 10 16 0.00 0.00
2:55 am 02:55 Clear 69 20.5 67 19.5 94 94 E 6 9 30.12 1020 10 16 0.00 0.00
3:15 am 03:15 Clear 69 20.3 67 19.5 95 95 E 6 9 30.12 1020 10 16 0.00 0.00
3:35 am 03:35 Clear 68 20.2 67 19.4 95 95 E 5 7 30.12 1020 10 16 0.00 0.00
3:55 am 03:55 Clear 68 20.1 67 19.3 95 95 Calm 30.12 1020 10 16 0.00 0.00
4:15 am 04:15 Clear 68 20.1 67 19.4 96 96 Calm 30.12 1020 10 16 0.00 0.00
4:35 am 04:35 Clear 68 20.1 67 19.3 95 95 E 3 6 30.15 1021 10 16 0.00 0.00
4:55 am 04:55 Clear 68 20 67 19.2 95 95 Calm 30.15 1021 7 11 0.00 0.00
5:15 am 05:15 Clear 68 19.8 66 19.1 96 96 Calm 30.15 1021 7 11 0.00 0.00
6:00 am 06:00 Mostly Clear 68 20 66 19 94 94 Calm 30.15 1021 10 16 0.00 0.00
6:50 am 06:50 Partly Cloudy with Mist and Fog 70 21 68 20 94 94 E 5 7 30.15 1021 4 6 0.00 0.00
7:50 am 07:50 Mostly Sunny 73 23 70 21 89 89 E 7 11 30.18 1022 5 8 0.00 0.00
8:50 am 08:50 Partly Cloudy 77 25 73 23 89 89 ESE 8 13 30.18 1022 10 16 0.00 0.00
9:50 am 09:50 Mostly Cloudy 81 27 73 23 79 79 ESE 8 13 30.18 1022 10 16 0.00 0.00
11:50 am 11:50 Mostly Cloudy 84 29 73 23 70 70 ESE 12 19 30.18 1022 10 16 0.00 0.00
12:50 pm 12:50 Partly Cloudy 86 30 72 22 62 62 SE 13 20 30.15 1021 10 16 0.00 0.00
1:50 pm 13:50 Mostly Cloudy 86 30 73 23 66 66 SE 17 28 30.15 1021 10 16 0.00 0.00
2:50 pm 14:50 Mostly Cloudy 82 28 73 23 74 74 SE 7 11 30.12 1020 10 16 0.00 0.00
3:50 pm 15:50 Mostly Cloudy 79 26 72 22 79 79 E 10 17 30.09 1019 10 16 0.00 0.00
9:50 pm 21:50 Mostly Clear 75 24 72 22 89 89 ESE 8 13 30.06 1018 10 16 0.00 0.00
10:15 pm 22:15 Clear 75 23.8 73 22.5 92 92 ESE 6 9 30.06 1018 10 16 0.00 0.00
10:35 pm 22:35 Clear 75 23.8 73 22.5 92 92 ESE 7 11 30.06 1018 10 16 0.00 0.00
10:55 pm 22:55 Clear 75 23.7 73 22.5 93 93 ESE 6 9 30.06 1018 10 16 0.00 0.00
11:15 pm 23:15 Clear 74 23.5 73 22.5 94 94 ESE 6 9 30.06 1018 10 16 0.00 0.00
11:35 pm 23:35 Partly Cloudy 74 23.5 73 22.5 94 94 SE 5 7 30.06 1018 10 16 0.00 0.00
11:55 pm 23:55 Clear 75 23.7 73 22.7 94 94 SE 7 11 30.06 1018 10 16 0.00 0.00

Powered by AerisWeather